AIRLIFT KBNA-KATL

Flight info

Callsign AIRLIFT
Flight time N/A
Altitude 31000
Route TIPPN4 DENST CHPPR CHPPR1
Aircraft A333/H-SDE3GHIJ2J3J5M1RVWXY/LB2D1

Departure

Time 2026-04-30 05:06
Airport Nashville International Airport (KBNA)

Arrival

Time N/A
Airport Hartsfield Jackson Atlanta International Airport (KATL)
Time Latitude Longitude Altitude Speed Heading
2026-04-30 04:27 36.12600 -86.66978 576 ft 0 kts 232°
2026-04-30 04:49 36.12600 -86.66979 569 ft 1 kts 232°
2026-04-30 04:49 36.12594 -86.66988 577 ft 2 kts 232°
2026-04-30 04:49 36.12576 -86.67023 574 ft 5 kts 239°
2026-04-30 04:50 36.12575 -86.67024 574 ft 0 kts 239°
2026-04-30 04:50 36.12575 -86.67025 574 ft 0 kts 246°
2026-04-30 04:50 36.12578 -86.67031 576 ft 1 kts 282°
2026-04-30 04:50 36.12583 -86.67034 577 ft 1 kts 321°
2026-04-30 04:51 36.12605 -86.67051 573 ft 7 kts 327°
2026-04-30 04:51 36.12659 -86.67093 577 ft 12 kts 327°
2026-04-30 04:51 36.12693 -86.67139 578 ft 0 kts 294°
2026-04-30 04:52 36.12724 -86.67162 576 ft 21 kts 326°
2026-04-30 04:52 36.12865 -86.67262 578 ft 13 kts 293°
2026-04-30 04:52 36.12844 -86.67294 578 ft 6 kts 205°
2026-04-30 04:53 36.12805 -86.67327 576 ft 10 kts 218°
2026-04-30 04:53 36.12735 -86.67408 576 ft 12 kts 237°
2026-04-30 04:53 36.12726 -86.67496 575 ft 9 kts 278°
2026-04-30 04:53 36.12734 -86.67537 575 ft 1 kts 300°
2026-04-30 04:54 36.12745 -86.67540 581 ft 3 kts 355°
2026-04-30 04:54 36.12807 -86.67555 581 ft 13 kts 328°
2026-04-30 04:54 36.12859 -86.67619 577 ft 11 kts 315°
2026-04-30 04:54 36.12954 -86.67740 580 ft 32 kts 313°
2026-04-30 04:55 36.13049 -86.67864 581 ft 13 kts 313°
2026-04-30 04:55 36.13110 -86.67944 585 ft 11 kts 314°
2026-04-30 04:55 36.13113 -86.67948 583 ft 0 kts 314°
2026-04-30 04:55 36.13141 -86.67993 583 ft 11 kts 313°
2026-04-30 04:56 36.13191 -86.68056 584 ft 11 kts 313°
2026-04-30 04:56 36.13270 -86.68171 586 ft 19 kts 292°
2026-04-30 04:56 36.13248 -86.68218 586 ft 13 kts 206°
2026-04-30 04:56 36.13055 -86.68305 585 ft 21 kts 196°
2026-04-30 04:57 36.13023 -86.68361 585 ft 3 kts 271°
2026-04-30 04:57 36.13054 -86.68427 583 ft 14 kts 297°
2026-04-30 04:57 36.13116 -86.68504 587 ft 16 kts 342°
2026-04-30 04:57 36.13173 -86.68568 586 ft 6 kts 294°
2026-04-30 04:58 36.13192 -86.68608 587 ft 8 kts 305°
2026-04-30 04:58 36.13253 -86.68691 586 ft 17 kts 319°
2026-04-30 04:58 36.13339 -86.68808 586 ft 22 kts 314°
2026-04-30 04:58 36.13440 -86.68932 587 ft 19 kts 311°
2026-04-30 04:59 36.13548 -86.69073 592 ft 25 kts 313°
2026-04-30 04:59 36.13653 -86.69184 597 ft 16 kts 347°
2026-04-30 04:59 36.13735 -86.69131 598 ft 22 kts 45°
2026-04-30 04:59 36.13909 -86.69017 597 ft 29 kts 330°
2026-04-30 05:00 36.14003 -86.69146 602 ft 17 kts 304°
2026-04-30 05:00 36.14069 -86.69254 603 ft 15 kts 311°
2026-04-30 05:00 36.14131 -86.69363 615 ft 15 kts 303°
2026-04-30 05:00 36.14137 -86.69379 615 ft 0 kts 292°
2026-04-30 05:04 36.14152 -86.69421 614 ft 13 kts 291°
2026-04-30 05:04 36.14113 -86.69482 620 ft 11 kts 178°
2026-04-30 05:04 36.14049 -86.69423 617 ft 12 kts 126°
2026-04-30 05:04 36.14036 -86.69407 621 ft 0 kts 134°
2026-04-30 05:05 36.14035 -86.69405 621 ft 3 kts 134°
2026-04-30 05:05 36.14011 -86.69375 622 ft 1 kts 134°
2026-04-30 05:05 36.13975 -86.69328 616 ft 25 kts 134°
2026-04-30 05:06 36.13102 -86.68191 584 ft 155 kts 134°
2026-04-30 05:06 36.12240 -86.67054 686 ft 201 kts 124°
2026-04-30 05:06 36.11307 -86.65664 1460 ft 217 kts 127°
2026-04-30 05:06 36.10291 -86.64201 2378 ft 230 kts 126°
2026-04-30 05:07 36.09169 -86.62739 3317 ft 232 kts 131°
2026-04-30 05:07 36.08032 -86.61419 4136 ft 222 kts 133°
2026-04-30 05:07 36.06957 -86.60099 4933 ft 214 kts 131°
2026-04-30 05:07 36.05973 -86.58752 5588 ft 209 kts 130°
2026-04-30 05:08 36.05018 -86.57390 6198 ft 209 kts 133°
2026-04-30 05:08 36.04075 -86.56031 6762 ft 209 kts 132°
2026-04-30 05:08 36.03127 -86.54654 7294 ft 211 kts 133°
2026-04-30 05:08 36.02177 -86.53263 7830 ft 212 kts 134°
2026-04-30 05:09 36.01178 -86.51995 8175 ft 194 kts 163°
2026-04-30 05:09 36.00033 -86.52082 7856 ft 157 kts 228°
2026-04-30 05:09 35.99727 -86.53263 7380 ft 177 kts 290°
2026-04-30 05:09 36.00617 -86.54709 6844 ft 246 kts 318°
2026-04-30 05:10 36.02163 -86.55845 6148 ft 264 kts 342°
2026-04-30 05:10 36.04008 -86.55920 4910 ft 280 kts 18°
2026-04-30 05:10 36.05524 -86.54353 3638 ft 299 kts 56°
2026-04-30 05:10 36.06132 -86.51922 2961 ft 298 kts 89°
2026-04-30 05:11 36.05287 -86.50157 4519 ft 240 kts 138°
2026-04-30 05:11 36.03627 -86.49388 4483 ft 284 kts 179°
2026-04-30 05:11 36.01607 -86.49997 3564 ft 310 kts 217°
2026-04-30 05:11 36.00403 -86.52011 3090 ft 281 kts 259°
2026-04-30 05:12 36.00476 -86.54209 2696 ft 240 kts 299°
2026-04-30 05:12 36.01526 -86.55565 2273 ft 208 kts 336°
2026-04-30 05:12 36.02771 -86.56363 2028 ft 198 kts 336°
2026-04-30 05:12 36.03974 -86.57159 1838 ft 194 kts 331°
2026-04-30 05:13 36.05029 -86.58132 1757 ft 188 kts 323°
2026-04-30 05:13 36.05963 -86.59180 1743 ft 179 kts 318°
2026-04-30 05:13 36.06824 -86.60338 1774 ft 186 kts 315°
2026-04-30 05:13 36.07718 -86.61510 1664 ft 189 kts 317°
2026-04-30 05:14 36.08658 -86.62639 1453 ft 188 kts 324°
2026-04-30 05:14 36.09587 -86.63709 1116 ft 176 kts 317°
2026-04-30 05:14 36.10419 -86.64724 963 ft 165 kts 313°
2026-04-30 05:14 36.11191 -86.65725 839 ft 150 kts 318°
2026-04-30 05:15 36.11919 -86.66681 684 ft 161 kts 314°
2026-04-30 05:15 36.12666 -86.67631 584 ft 144 kts 317°
2026-04-30 05:15 36.13249 -86.68383 585 ft 96 kts 312°
2026-04-30 05:15 36.13561 -86.68797 586 ft 46 kts 313°
2026-04-30 05:16 36.13625 -86.68879 588 ft 1 kts 314°
2026-04-30 05:16 36.13646 -86.68906 590 ft 15 kts 313°
2026-04-30 05:16 36.13722 -86.69019 595 ft 10 kts 307°
2026-04-30 05:16 36.13752 -86.69086 597 ft 9 kts 289°
2026-04-30 05:17 36.13730 -86.69124 598 ft 10 kts 232°
2026-04-30 05:17 36.13716 -86.69145 598 ft 0 kts 230°
2026-04-30 05:18 36.13712 -86.69151 598 ft 7 kts 229°
2026-04-30 05:18 36.13663 -86.69208 597 ft 3 kts 220°